Prescott, AZ

9:25 PM MST on November 16, 2019 (GMT -0700)
Love

Weather History for KPRC - May, 2019

Change the Weather History Date:

Tuesday, May 28, 2019

  Actual Average Record
Temperature  
Mean Temperature 52 °F 65 °F  
Max Temperature 68 °F 81 °F 95 °F (1984)
Min Temperature 37 °F 50 °F 36 °F (1971)
Degree Days  
Heating Degree Days 12    
Month to date heating degree days 269  
Since 1 July heating degree days 4318  
Cooling Degree Days 0    
Month to date cooling degree days 0  
Year to date cooling degree days 1  
Growing Degree Days 2 (Base 50)    
Moisture  
Dew Point 30 °F    
Average Humidity 42    
Maximum Humidity 76    
Minimum Humidity 23    
Precipitation  
Precipitation 0.00 in 0.02 in 0.17 in (1995)
Month to date precipitation 1.15 0.42  
Year to date precipitation 6.67 4.50  
Sea Level Pressure  
Sea Level Pressure 29.80 in    
Wind  
Wind Speed 5 mph ()    
Max Wind Speed 15 mph    
Max Gust Speed 19 mph    
Visibility 10.0 miles    
Events      
T = Trace of Precipitation, MM = Missing Value Source: Averaged Metar Reports

Daily Weather History Graph

Daily Weather History Graph

Search for Another Location

Airport or City:

Astronomy

May. 28, 2019 Rise Set
Actual Time 5:19 AM MST 7:34 PM MST
Civil Twilight 4:50 AM MST 8:03 PM MST
Nautical Twilight 4:15 AM MST 8:39 PM MST
Astronomical Twilight 3:37 AM MST 9:17 PM MST
Moon 2:14 AM MST (5/28) 2:05 PM MST (5/28)
Length of Visible Light 15h 13m
Length of Day
14h 15m
Waning Crescent, 30% of the Moon is Illuminated
May 28
Waning Crescent
Jun 3
New
Jun 9
First Quarter
Jun 17
Full
Jun 25
Last Quarter

Hourly Weather History & Observations

Time (MST) Temp. Windchill Dew Point Humidity Pressure Visibility Wind Dir Wind Speed Gust Speed Precip Events Conditions
12:53 AM 41.0 °F 35.8 °F 30.9 °F 67% 29.85 in 10.0 mi South 8.1 mph - N/A   Clear
1:53 AM 41.0 °F 36.4 °F 30.0 °F 65% 29.83 in 10.0 mi South 6.9 mph - N/A   Clear
2:53 AM 39.0 °F 34.8 °F 30.0 °F 70% 29.83 in 10.0 mi SSW 5.8 mph - N/A   Clear
3:53 AM 37.9 °F 33.5 °F 30.0 °F 73% 29.84 in 10.0 mi South 5.8 mph - N/A   Clear
4:53 AM 39.0 °F 34.0 °F 30.0 °F 70% 29.84 in 10.0 mi SSW 6.9 mph - N/A   Clear
5:53 AM 39.9 °F 35.1 °F 30.0 °F 68% 29.85 in 10.0 mi South 6.9 mph - N/A   Clear
6:53 AM 46.9 °F - 33.1 °F 59% 29.84 in 10.0 mi South 3.5 mph - N/A   Clear
7:53 AM 54.0 °F - 30.0 °F 40% 29.83 in 10.0 mi Calm Calm - N/A   Clear
8:53 AM 57.9 °F - 30.0 °F 35% 29.82 in 10.0 mi Calm Calm - N/A   Clear
9:53 AM 60.1 °F - 30.0 °F 32% 29.82 in 10.0 mi Variable 3.5 mph - N/A   Clear
10:53 AM 62.1 °F - 30.9 °F 31% 29.83 in 10.0 mi Variable 6.9 mph - N/A   Scattered Clouds
11:53 AM 64.9 °F - 30.0 °F 27% 29.81 in 10.0 mi NW 9.2 mph - N/A   Scattered Clouds
12:53 PM 64.0 °F - 28.9 °F 27% 29.79 in 10.0 mi Variable 3.5 mph - N/A   Scattered Clouds
1:53 PM 64.9 °F - 30.0 °F 27% 29.78 in 10.0 mi North 6.9 mph - N/A   Overcast
2:53 PM 66.9 °F - 28.0 °F 23% 29.76 in 10.0 mi Calm Calm - N/A   Overcast
3:53 PM 64.9 °F - 27.0 °F 24% 29.75 in 10.0 mi Variable 3.5 mph - N/A   Overcast
4:53 PM 64.0 °F - 28.9 °F 27% 29.76 in 10.0 mi NW 12.7 mph - N/A   Overcast
5:53 PM 63.0 °F - 28.9 °F 28% 29.76 in 10.0 mi WNW 10.4 mph - N/A   Mostly Cloudy
6:53 PM 62.1 °F - 30.0 °F 30% 29.75 in 10.0 mi West 8.1 mph - N/A   Overcast
7:53 PM 61.0 °F - 30.0 °F 31% 29.75 in 10.0 mi West 5.8 mph - N/A   Overcast
8:53 PM 59.0 °F - 32.0 °F 36% 29.76 in 10.0 mi West 3.5 mph - N/A   Overcast
9:53 PM 57.9 °F - 32.0 °F 37% 29.78 in 10.0 mi WNW 4.6 mph - N/A   Overcast
10:53 PM 55.9 °F - 32.0 °F 40% 29.78 in 10.0 mi WNW 6.9 mph - N/A   Overcast
11:53 PM 54.0 °F - 34.0 °F 47% 29.78 in 10.0 mi NW 6.9 mph - N/A   Partly Cloudy